Date,TemperatureHighF,TemperatureAvgF,TemperatureLowF,DewpointHighF,DewpointAvgF,DewpointLowF,HumidityHigh,HumidityAvg,HumidityLow,PressureMaxIn,PressureMinIn,WindSpeedMaxMPH,WindSpeedAvgMPH,GustSpeedMaxMPH,PrecipitationSumIn
2013-1-1,61.9,50.4,41.9,42.0,35.7,21.5,91,62,22,30.26,30.09,14,2,14,0.00
2013-1-2,68.1,52.2,40.7,36.6,29.7,11.1,80,48,12,30.15,30.03,12,3,12,0.00
2013-1-3,72.5,53.1,38.7,37.4,28.9,14.2,86,47,12,30.19,30.07,8,2,8,0.00
2013-1-4,67.9,52.2,42.0,35.3,26.4,12.6,69,42,12,30.29,30.17,9,2,9,0.00
2013-1-5,66.2,50.9,39.0,41.9,33.6,22.0,85,56,19,30.31,30.18,8,2,8,0.00
2013-1-6,57.7,51.2,46.0,49.3,45.0,41.8,95,80,59,30.22,30.03,20,4,20,0.06
2013-1-7,67.1,52.2,40.9,45.4,40.3,32.2,94,68,30,30.12,29.98,14,3,14,0.00
2013-1-8,71.6,54.4,41.5,53.4,44.6,34.6,92,72,30,30.13,30.03,10,2,10,0.00
2013-1-9,68.1,55.1,44.0,52.2,46.9,39.7,94,76,36,30.14,30.02,9,2,9,0.00
2013-1-10,58.4,53.4,46.7,50.8,36.1,20.9,92,56,24,30.10,29.91,25,10,25,0.00
2013-1-11,55.4,49.1,41.9,30.3,24.6,20.4,54,39,28,30.19,30.05,24,10,24,0.00
2013-1-12,57.2,46.1,36.2,35.4,26.3,15.9,79,49,20,30.18,30.07,12,3,12,0.00
2013-1-13,56.8,46.0,37.8,32.3,25.8,14.4,70,49,20,30.19,30.07,14,3,14,0.00
2013-1-14,56.0,45.7,36.0,29.1,13.3,-2.9,63,30,11,30.35,30.15,12,4,12,0.00
2013-1-15,61.1,46.5,34.5,43.1,25.4,11.7,89,49,16,30.48,30.33,13,3,13,0.00
2013-1-16,70.3,51.8,37.1,44.5,33.1,25.5,88,54,19,30.37,30.13,12,2,12,0.00
2013-1-17,79.6,59.6,43.7,37.0,28.0,14.5,75,37,9,30.18,30.04,8,3,8,0.00
2013-1-18,80.0,62.3,47.5,32.4,25.2,14.8,54,28,9,30.15,30.03,13,4,13,0.00
2013-1-19,81.1,62.8,47.0,29.6,23.4,6.3,46,26,7,30.19,30.06,12,3,12,0.00
2013-1-20,81.5,61.2,45.8,30.4,22.7,9.8,45,27,7,30.15,29.99,9,3,9,0.00
2013-1-21,82.1,61.1,45.6,29.7,23.7,6.8,49,28,6,30.09,29.99,12,4,12,0.00
2013-1-22,80.9,62.1,44.8,32.5,23.0,6.7,46,26,6,30.11,30.00,8,2,8,0.00
2013-1-23,74.3,63.3,53.7,52.6,36.6,28.2,80,39,21,30.15,30.01,12,2,12,0.00
2013-1-24,67.1,59.8,54.5,56.7,53.9,50.4,94,82,65,30.22,30.09,14,5,14,0.63
2013-1-25,67.5,62.2,59.1,59.4,57.5,55.8,92,85,69,30.12,29.94,13,4,13,0.08
2013-1-26,66.5,60.3,55.1,61.5,57.5,53.6,96,91,70,30.01,29.90,12,3,12,0.09
2013-1-27,61.1,55.4,48.6,55.6,48.7,39.7,97,79,58,30.04,29.97,15,6,15,0.03
2013-1-28,61.2,51.2,40.5,42.3,34.8,25.6,91,57,27,30.19,30.03,21,5,21,0.00
2013-1-29,60.6,50.2,39.6,45.1,38.6,31.3,85,66,40,30.25,30.16,12,3,12,0.00
2013-1-30,70.8,55.0,42.4,45.2,41.3,36.8,94,64,30,30.35,30.21,10,2,10,0.00
2013-1-31,78.5,59.1,45.1,45.0,41.8,36.7,90,57,23,30.25,30.08,12,2,12,0.00
2013-2-1,74.6,60.4,46.5,49.0,44.4,40.7,81,58,33,30.17,30.09,12,2,12,0.00
2013-2-2,76.3,63.9,54.2,54.4,46.5,38.3,79,56,26,30.19,30.09,14,2,14,0.00
2013-2-3,75.9,63.2,54.3,55.1,50.8,44.7,87,67,34,30.14,29.99,13,3,13,0.00
2013-2-4,68.9,57.0,48.5,54.6,50.9,46.0,94,81,56,30.11,29.98,10,3,10,0.00
2013-2-5,58.8,55.3,53.3,51.1,50.2,48.7,90,83,74,30.11,30.00,10,3,10,0.00
2013-2-6,64.5,56.8,49.0,50.5,48.6,45.9,89,75,54,30.12,30.01,13,4,13,0.00
2013-2-7,61.3,53.0,44.4,50.3,46.5,42.1,95,79,66,30.16,30.00,12,3,12,0.00
2013-2-8,54.2,49.2,42.5,48.1,41.6,38.6,90,75,62,30.01,29.90,23,6,23,0.09
2013-2-9,57.2,47.5,37.1,42.1,39.1,35.3,95,74,48,30.12,29.95,12,3,12,0.01
2013-2-10,57.3,49.9,40.9,44.7,41.7,37.9,90,74,57,30.12,30.02,10,2,10,0.00
2013-2-11,61.7,50.9,40.2,44.4,40.4,34.1,93,70,36,30.25,30.07,15,4,15,0.00
2013-2-12,64.5,51.1,39.0,44.4,37.9,25.8,89,64,29,30.37,30.24,13,3,13,0.00
2013-2-13,69.3,53.5,40.0,43.9,39.6,32.5,92,63,26,30.28,30.13,12,3,12,0.00
2013-2-14,77.2,56.6,42.0,49.4,41.6,31.1,91,62,19,30.22,30.04,12,3,12,0.00
2013-2-15,83.2,64.5,48.7,42.7,32.3,18.9,72,36,10,30.19,30.10,12,3,12,0.00
2013-2-16,82.7,65.4,52.5,31.3,24.2,8.4,44,24,7,30.15,29.97,14,4,14,0.00
2013-2-17,66.5,55.7,48.4,51.1,44.8,30.4,92,68,44,30.04,29.92,14,5,14,0.00
2013-2-18,54.5,54.4,54.2,48.3,48.1,47.7,80,79,78,30.04,30.03,9,4,9,0.00
2013-2-20,60.0,54.3,45.9,42.9,34.7,27.8,80,49,37,30.01,29.72,25,10,25,0.01
2013-2-21,63.1,52.1,43.3,43.4,40.3,34.0,85,66,35,30.11,29.97,14,4,14,0.00
2013-2-22,64.8,52.7,40.2,46.7,40.8,35.1,90,67,37,30.22,30.10,14,3,14,0.00
2013-2-23,65.0,53.0,41.3,49.0,42.4,36.7,86,69,41,30.17,29.93,16,3,16,0.00
2013-2-24,69.2,55.6,44.3,45.0,30.6,11.7,93,49,11,30.20,30.00,15,4,15,0.00
2013-2-25,68.0,54.4,40.5,41.2,30.8,16.7,82,45,16,30.24,30.07,15,3,15,0.00
2013-2-26,75.1,56.0,40.9,46.7,38.0,25.1,92,57,16,30.12,29.98,12,3,12,0.00
2013-2-27,76.2,60.5,47.6,39.9,26.8,12.2,69,33,9,30.26,30.12,16,4,16,0.00
2013-2-28,79.7,62.0,46.6,36.6,26.1,11.0,56,31,8,30.32,30.22,16,4,16,0.00
2013-3-1,87.4,67.0,49.0,34.8,28.4,15.1,56,29,7,30.30,30.12,16,4,16,0.00
2013-3-2,83.6,68.0,53.3,47.9,32.9,21.0,68,31,10,30.20,30.06,13,4,13,0.00
2013-3-3,69.8,59.6,53.9,52.9,47.9,36.4,89,67,31,30.10,29.97,12,5,12,0.00
2013-3-4,69.3,58.9,53.2,52.3,51.0,49.1,89,76,51,30.10,30.01,16,4,16,0.00
2013-3-5,65.0,56.3,50.6,53.1,50.3,47.0,91,81,64,30.14,30.03,13,4,13,0.00
2013-3-6,64.7,56.7,49.4,49.8,45.4,42.1,81,67,45,30.17,30.02,14,5,14,0.00
2013-3-7,60.1,55.8,53.4,51.5,49.1,45.1,92,79,59,30.02,29.85,15,5,15,0.03
2013-3-8,57.4,52.9,47.0,48.1,44.8,38.5,93,75,52,30.03,29.79,17,7,17,0.44
2013-3-9,64.1,55.6,49.4,48.2,45.7,39.6,89,71,44,30.22,30.02,13,4,13,0.00
2013-3-10,72.3,58.3,44.3,47.6,41.3,28.9,88,59,22,30.28,30.15,15,4,15,0.00
2013-3-11,75.8,60.2,45.6,51.2,42.8,37.6,78,56,28,30.19,30.03,12,3,12,0.00
2013-3-12,80.4,61.7,46.6,52.4,46.8,38.9,88,63,29,30.09,29.99,10,3,10,0.00
2013-3-13,82.9,64.3,49.7,56.8,49.4,42.1,91,62,30,30.12,30.00,10,3,10,0.00
2013-3-14,81.8,63.4,52.1,57.3,52.0,48.1,97,71,36,30.09,29.99,12,4,12,0.00
2013-3-15,72.0,60.2,54.4,55.9,53.4,51.7,93,80,52,30.04,29.93,12,5,12,0.00
2013-3-16,67.8,57.5,51.9,53.7,51.3,49.2,94,81,57,29.99,29.88,13,5,13,0.00
2013-3-17,68.3,59.4,54.6,53.5,51.7,50.5,88,77,57,30.01,29.93,12,5,12,0.00
2013-3-18,65.4,58.5,54.5,52.5,51.3,49.6,85,77,63,30.09,29.99,13,4,13,0.00
2013-3-19,67.7,57.8,50.3,55.1,51.3,47.5,92,80,62,30.12,30.05,13,3,13,0.00
2013-3-20,72.2,60.7,52.0,54.7,51.8,48.8,92,74,52,30.10,29.96,12,4,12,0.00
2013-3-21,71.3,61.0,52.0,56.4,52.1,49.2,91,74,53,29.96,29.80,14,5,14,0.00
2013-3-22,70.1,60.5,55.0,54.3,52.3,49.8,90,76,53,29.91,29.81,14,5,14,0.00
2013-3-23,71.5,60.0,52.2,54.4,51.5,48.9,90,75,50,30.02,29.91,13,4,13,0.00
2013-3-24,77.3,62.5,54.2,54.7,52.7,49.2,91,73,40,30.03,29.88,14,4,14,0.00
2013-3-25,76.0,61.7,53.2,55.6,53.0,44.5,96,76,40,29.99,29.88,12,4,12,0.00
2013-3-26,70.3,61.5,56.2,54.8,53.4,51.1,92,76,55,29.97,29.89,15,5,15,0.00
2013-3-27,68.8,60.6,55.7,53.6,51.9,50.3,86,74,55,30.04,29.93,14,5,14,0.00
2013-3-28,74.5,62.0,55.4,56.5,53.3,51.6,89,75,47,30.08,30.00,15,4,15,0.00
2013-3-29,73.0,61.5,55.3,58.3,54.6,52.1,92,79,56,30.11,30.03,15,4,15,0.00
2013-3-30,71.5,61.7,56.8,56.6,53.6,48.6,89,76,56,30.13,30.04,14,6,14,0.00
2013-3-31,68.5,61.1,56.8,56.8,54.4,52.4,86,79,64,30.13,30.05,16,6,16,0.00
2013-4-1,66.4,59.7,54.9,54.1,51.8,48.7,87,76,58,30.17,30.07,18,6,18,0.00
2013-4-2,71.3,61.1,52.7,54.7,52.4,49.5,90,74,53,30.10,29.98,13,4,13,0.00
2013-4-3,76.2,63.3,55.4,57.8,54.3,50.6,92,75,42,30.09,29.97,14,4,14,0.00
2013-4-4,72.2,63.0,58.1,55.9,54.5,52.4,89,75,52,30.11,30.00,14,5,14,0.00
2013-4-5,69.3,61.8,58.5,56.9,55.3,54.3,88,80,64,30.09,29.99,14,6,14,0.00
2013-4-6,70.0,62.6,57.4,55.8,54.5,53.3,87,76,59,30.08,29.95,17,5,17,0.00
2013-4-7,71.1,62.1,56.0,56.4,54.3,52.4,89,77,56,29.98,29.81,16,5,16,0.00
2013-4-8,68.8,62.3,56.3,55.4,43.4,29.0,88,55,26,29.82,29.64,26,12,26,0.00
2013-4-9,76.7,64.4,53.4,47.2,34.6,15.7,65,36,10,30.00,29.81,24,8,24,0.00
2013-4-10,80.5,65.4,49.8,48.2,38.1,20.1,74,43,11,30.10,29.97,17,5,17,0.00
2013-4-11,73.0,61.6,52.8,54.7,48.8,38.3,81,65,31,30.00,29.78,15,5,15,0.00
2013-4-12,73.2,61.9,57.4,54.9,52.5,50.9,84,72,51,29.90,29.77,16,5,16,0.00
2013-4-13,61.9,58.4,56.0,55.2,53.5,50.6,90,84,76,29.92,29.84,12,5,12,0.00
2013-4-14,62.7,58.3,55.2,52.8,51.0,49.3,83,77,67,29.89,29.82,13,6,13,0.00
2013-4-15,64.5,58.7,56.1,54.5,51.0,47.3,91,76,64,29.91,29.84,18,7,18,0.01
2013-4-16,64.7,56.9,52.0,49.6,43.5,27.7,78,63,28,29.98,29.88,20,6,22,0.00
2013-4-17,72.2,62.8,53.9,42.3,28.9,13.5,60,30,11,30.11,29.98,24,8,24,0.00
2013-4-18,79.6,64.1,49.5,40.3,27.7,8.1,64,33,7,30.20,30.10,23,6,23,0.00
2013-4-19,84.8,67.7,50.2,50.1,29.9,8.5,66,32,6,30.16,29.96,18,5,18,0.00
2013-4-20,83.1,67.8,53.2,56.0,48.7,39.1,86,55,24,29.99,29.86,14,4,14,0.00
2013-4-21,78.7,64.4,55.7,58.0,53.4,44.5,96,71,31,30.01,29.92,13,4,13,0.00
2013-4-22,72.8,62.3,57.5,54.5,53.1,51.6,87,73,50,30.01,29.89,14,6,14,0.00
2013-4-23,76.2,62.8,57.5,54.4,52.1,50.0,82,69,46,29.98,29.84,14,6,14,0.00
2013-4-24,62.7,60.5,58.6,55.1,52.8,48.4,85,76,60,29.98,29.90,13,5,13,0.01
2013-4-25,71.5,63.4,58.4,53.7,51.8,47.8,84,67,44,30.11,29.96,15,5,15,0.00
2013-4-26,77.0,64.1,52.6,54.6,51.8,48.8,88,66,40,30.15,30.08,15,4,15,0.00
2013-4-27,76.8,64.9,53.4,58.7,54.1,49.3,88,70,46,30.15,29.98,14,4,14,0.00
2013-4-28,76.8,65.2,58.7,59.4,56.4,54.3,89,75,54,30.02,29.84,14,5,14,0.00
2013-4-29,70.5,62.5,58.0,57.3,55.6,53.8,91,79,61,29.91,29.77,15,6,15,0.00
2013-4-30,66.5,61.4,58.5,55.7,54.0,52.8,82,77,67,29.90,29.82,14,6,14,0.00
2013-5-1,78.3,66.1,60.3,57.1,55.4,53.9,82,69,46,30.08,29.90,13,5,13,0.00
2013-5-2,93.5,72.4,55.7,56.3,47.5,15.5,89,51,7,30.11,29.97,17,5,17,0.00
2013-5-3,93.3,76.1,58.8,54.7,31.7,12.5,66,27,6,30.00,29.76,16,5,16,0.00
2013-5-4,71.0,64.6,60.4,58.2,55.5,51.1,90,73,56,29.85,29.74,17,8,17,0.00
2013-5-5,66.5,61.9,57.5,54.9,52.6,50.5,90,72,58,29.95,29.83,20,9,20,0.00
2013-5-6,68.3,61.6,56.4,58.6,55.2,51.5,95,81,57,30.01,29.90,15,7,15,0.42
2013-5-7,70.0,63.4,57.8,56.5,52.6,46.8,90,70,45,30.07,29.98,15,5,15,0.01
2013-5-8,70.3,64.0,59.8,55.9,52.1,46.9,83,67,46,30.09,30.06,18,6,18,0.00
2013-5-9,71.3,63.1,55.3,58.2,54.5,50.4,89,74,57,30.09,30.01,14,4,14,0.02
2013-5-10,79.6,67.1,57.6,59.8,57.4,55.2,93,73,51,30.08,29.99,15,4,15,0.00
2013-5-11,84.3,69.9,60.2,63.9,60.1,57.1,92,73,47,30.07,29.96,13,4,13,0.00
2013-5-12,91.1,74.1,60.6,64.2,59.6,52.7,94,65,32,30.05,29.89,14,4,14,0.00
2013-5-13,96.5,79.7,65.1,62.2,56.1,48.1,83,49,21,29.95,29.84,15,5,15,0.00
2013-5-14,82.7,69.6,61.5,58.5,54.6,48.6,80,61,36,29.99,29.88,16,5,16,0.00
2013-5-15,74.3,65.2,59.7,58.0,55.9,54.7,85,73,55,30.03,29.94,13,6,13,0.00
2013-5-16,73.2,64.7,60.9,58.1,55.5,54.1,82,72,58,29.98,29.88,16,5,16,0.00
2013-5-17,72.1,65.9,61.5,58.6,56.7,54.3,84,73,60,29.99,29.90,17,6,17,0.00
2013-5-18,74.0,66.2,59.6,57.2,55.9,54.1,85,70,55,30.03,29.95,13,5,13,0.00
2013-5-19,75.2,66.6,59.5,59.5,56.8,54.6,85,71,56,29.99,29.86,14,5,14,0.00
2013-5-20,82.8,69.0,58.2,62.0,59.3,54.7,89,73,47,29.95,29.86,13,5,13,0.00
2013-5-21,78.8,68.4,63.2,61.7,59.9,58.5,87,75,55,29.93,29.82,14,5,14,0.00
2013-5-22,73.8,66.8,63.2,58.9,56.7,55.3,84,71,57,29.85,29.76,17,6,17,0.00
2013-5-23,72.5,65.0,59.4,56.1,53.9,50.5,81,68,53,29.92,29.81,14,7,14,0.00
2013-5-24,72.3,64.8,57.8,55.8,53.8,50.9,81,68,55,29.98,29.91,13,5,13,0.00
2013-5-25,74.7,64.7,58.1,56.6,53.5,51.5,80,68,47,30.02,29.95,16,6,16,0.00
2013-5-26,71.5,64.6,58.2,56.5,54.9,53.3,86,72,56,30.04,29.98,14,6,14,0.00
2013-5-27,75.7,66.7,59.7,58.7,56.6,54.4,83,71,54,30.00,29.85,16,6,16,0.00
2013-5-28,77.6,67.8,62.2,61.3,58.5,55.5,85,73,48,29.88,29.73,16,7,16,0.00
2013-5-29,80.8,69.3,61.7,62.6,58.8,53.1,87,71,40,29.81,29.70,16,6,16,0.00
2013-5-30,77.0,68.2,60.7,62.2,59.7,57.1,89,75,55,29.87,29.75,12,5,12,0.00
2013-5-31,81.0,69.2,63.1,62.1,59.6,57.9,85,73,52,29.91,29.79,13,5,13,0.00
2013-6-1,84.1,70.2,63.9,65.1,61.8,59.6,87,76,51,29.85,29.73,16,5,16,0.00
2013-6-2,71.0,66.3,63.8,61.5,59.7,56.9,84,80,70,29.83,29.76,14,6,14,0.00
2013-6-3,73.4,66.6,63.1,60.6,57.9,56.6,81,74,63,29.89,29.79,14,6,14,0.00
2013-6-4,75.7,66.3,62.5,59.2,57.7,56.8,82,74,55,29.96,29.88,16,6,16,0.00
2013-6-5,74.8,66.3,61.7,58.5,57.1,55.8,84,73,54,30.00,29.90,16,6,16,0.00
2013-6-6,76.2,65.7,60.9,60.9,57.7,56.2,86,76,57,29.95,29.86,15,5,15,0.00
2013-6-7,75.5,65.6,60.7,61.5,58.0,56.1,85,77,61,29.91,29.77,14,5,14,0.00
2013-6-8,71.5,65.0,62.1,60.2,58.4,57.1,86,80,67,29.90,29.78,13,6,13,0.00
2013-6-9,73.0,65.0,61.3,60.9,58.0,56.0,86,78,65,29.93,29.86,13,5,13,0.00
2013-6-10,77.7,68.1,61.2,58.7,57.0,55.4,84,69,48,29.95,29.88,17,6,17,0.00
2013-6-11,83.7,70.5,62.1,62.5,59.7,57.9,87,70,43,29.93,29.86,13,6,13,0.00
2013-6-12,72.9,66.4,63.6,62.0,59.7,57.6,86,79,68,30.02,29.91,12,6,12,0.00
2013-6-13,79.0,68.1,63.1,60.5,58.8,57.8,84,73,52,30.01,29.88,13,5,13,0.00
2013-6-14,74.3,66.0,61.1,60.0,58.1,55.9,86,76,60,29.92,29.83,13,6,13,0.00
2013-6-15,75.2,66.2,61.3,58.6,56.7,55.6,84,72,53,29.97,29.89,16,6,16,0.00
2013-6-16,78.7,67.9,61.8,59.9,57.8,56.6,85,71,51,30.03,29.93,16,5,16,0.00
2013-6-17,79.5,68.8,59.9,61.8,59.2,56.1,89,73,52,29.98,29.87,14,5,14,0.00
2013-6-18,78.2,69.0,62.3,62.3,59.7,54.9,90,74,52,29.92,29.81,14,5,14,0.00
2013-6-19,78.8,70.0,62.8,61.1,57.3,47.9,88,67,34,29.87,29.77,16,6,16,0.00
2013-6-20,81.2,70.5,60.1,61.0,57.8,47.4,90,67,32,29.86,29.78,12,4,12,0.00
2013-6-21,79.9,70.2,61.8,61.0,58.5,51.7,90,68,39,29.90,29.82,13,6,13,0.00
2013-6-22,78.0,69.6,63.3,61.5,59.3,57.0,87,71,49,29.90,29.79,13,6,13,0.00
2013-6-23,74.2,67.1,63.6,60.8,58.4,56.8,86,74,59,29.88,29.78,13,6,13,0.00
2013-6-24,76.0,68.0,63.2,60.6,58.9,56.9,84,73,56,29.94,29.82,14,6,14,0.00
2013-6-25,77.4,68.6,63.2,62.9,60.9,59.3,88,77,59,29.99,29.89,12,4,12,0.00
2013-6-26,87.3,73.9,62.6,65.8,62.4,59.0,89,69,49,29.97,29.88,13,5,13,0.00
2013-6-27,88.6,75.1,65.9,67.0,64.1,62.1,91,71,45,30.01,29.94,13,5,13,0.00
2013-6-28,92.0,76.3,64.3,67.0,63.7,61.5,93,69,43,29.98,29.84,14,5,14,0.00
2013-6-29,91.2,79.6,68.5,68.0,63.8,60.3,81,60,40,29.87,29.72,14,4,14,0.00
2013-6-30,87.5,74.7,68.6,68.2,65.3,63.0,87,73,48,29.81,29.70,16,5,16,0.00
2013-7-1,94.1,75.2,66.4,66.5,64.4,58.9,91,72,32,29.88,29.78,13,4,13,0.00
2013-7-2,81.0,72.1,67.0,67.1,64.7,63.3,92,78,59,29.98,29.86,14,5,14,0.00
2013-7-3,83.4,72.0,65.3,66.5,63.7,61.3,92,77,55,29.93,29.78,14,5,14,0.00
2013-7-4,84.5,71.7,65.2,64.3,62.3,60.6,89,74,50,29.82,29.73,13,5,13,0.00
2013-7-5,81.1,70.5,65.6,64.5,62.3,60.6,87,76,54,29.83,29.75,15,5,15,0.00
2013-7-6,81.3,71.4,66.0,65.1,62.9,61.7,87,76,57,29.82,29.74,13,5,13,0.00
2013-7-7,82.3,72.4,66.7,65.8,63.0,61.0,85,73,55,29.85,29.75,13,5,13,0.00
2013-7-8,87.8,73.6,64.2,65.8,61.2,55.8,86,67,39,29.91,29.83,14,5,14,0.00
2013-7-9,81.9,73.8,65.4,65.0,62.4,59.8,85,69,50,29.99,29.87,16,5,16,0.00
2013-7-10,78.2,72.3,68.1,66.4,64.6,62.7,85,77,63,29.96,29.88,12,4,12,0.00
2013-7-11,75.3,71.5,68.7,66.6,65.1,63.6,86,80,73,29.96,29.87,12,4,12,0.00
2013-7-12,84.5,72.7,64.6,67.5,64.3,60.3,89,76,54,29.92,29.83,13,5,13,0.00
2013-7-13,84.5,71.5,63.7,64.8,61.7,59.4,89,73,47,29.95,29.83,13,5,13,0.00
2013-7-14,86.2,73.1,64.5,64.9,62.4,59.6,89,71,47,29.92,29.80,15,5,15,0.00
2013-7-15,86.2,73.8,66.3,65.7,61.1,52.9,89,67,37,29.86,29.78,16,5,16,0.00
2013-7-16,86.3,72.3,60.4,61.0,57.3,49.4,85,62,37,29.97,29.85,15,5,15,0.00
2013-7-17,88.8,73.3,59.5,58.0,54.2,42.6,78,55,24,30.00,29.92,15,5,15,0.00
2013-7-18,84.0,71.5,60.3,62.7,59.0,54.6,83,66,48,29.98,29.84,13,5,13,0.00
2013-7-19,80.6,70.4,63.3,63.7,61.6,57.8,87,75,55,29.90,29.81,12,5,12,0.00
2013-7-20,75.5,68.6,65.9,64.8,62.4,60.9,85,81,68,29.88,29.78,13,4,13,0.00
2013-7-21,71.4,67.9,64.9,64.4,62.5,60.9,88,83,78,29.91,29.79,9,4,9,0.00
2013-7-22,84.7,73.4,65.7,66.1,63.4,61.6,88,72,52,29.96,29.90,13,5,13,0.00
2013-7-23,82.7,71.8,65.8,65.5,61.9,58.1,85,72,53,30.01,29.91,15,6,15,0.00
2013-7-24,80.0,69.8,63.3,63.7,61.0,59.4,88,75,55,29.96,29.88,14,6,14,0.00
2013-7-25,82.0,69.9,62.8,64.2,60.9,58.7,87,74,54,30.00,29.91,14,5,14,0.00
2013-7-26,84.9,71.5,65.0,65.3,62.0,59.2,86,73,50,30.08,29.95,13,4,13,0.01
2013-7-27,81.0,70.6,64.1,64.9,61.4,58.6,86,74,57,30.00,29.86,14,5,14,0.00
2013-7-28,78.3,67.7,63.0,62.3,60.2,58.4,87,78,57,29.92,29.85,14,6,14,0.00
2013-7-29,79.0,69.0,63.6,60.5,58.5,57.0,84,70,51,30.03,29.91,13,5,13,0.00
2013-7-30,79.6,68.3,61.6,60.9,58.6,57.4,86,72,52,30.12,30.01,16,5,16,0.00
2013-7-31,75.8,67.0,62.1,60.7,58.4,56.6,85,75,59,30.10,29.98,14,6,14,0.00
2013-8-1,77.7,68.1,62.2,61.0,58.6,57.3,85,73,55,30.02,29.89,14,5,14,0.00
2013-8-2,81.1,69.8,63.1,61.4,59.7,57.8,86,72,46,29.96,29.88,14,5,14,0.00
2013-8-3,79.7,69.7,63.8,62.8,60.5,58.6,84,73,55,29.99,29.90,14,5,14,0.00
2013-8-4,80.5,68.8,63.0,63.2,60.1,58.5,87,75,52,30.01,29.91,14,5,14,0.00
2013-8-5,81.6,68.6,60.7,61.9,59.1,57.5,91,74,46,30.00,29.90,13,5,13,0.00
2013-8-6,81.3,68.6,61.7,59.9,58.6,57.2,88,72,47,30.03,29.95,15,6,15,0.00
2013-8-7,79.0,67.8,61.6,60.6,58.8,56.8,88,74,51,30.08,29.95,12,5,12,0.00
2013-8-8,79.3,68.5,58.8,62.1,59.0,55.4,90,73,53,29.99,29.89,13,5,13,0.00
2013-8-9,78.0,67.6,60.3,60.7,58.6,55.9,88,74,55,29.96,29.90,13,4,13,0.00
2013-8-10,77.3,67.9,62.3,60.4,58.7,57.5,88,74,53,30.03,29.93,17,5,17,0.00
2013-8-11,81.8,68.8,61.8,61.5,59.4,56.8,89,74,48,29.99,29.87,14,5,14,0.00
2013-8-12,80.7,69.2,62.6,62.7,60.2,58.4,88,75,53,29.97,29.87,14,5,14,0.00
2013-8-13,84.3,70.3,63.0,63.8,61.0,59.3,89,74,50,29.97,29.84,13,5,13,0.00
2013-8-14,81.9,69.6,63.4,65.4,61.9,59.8,89,78,56,29.92,29.81,13,5,13,0.00
2013-8-15,84.2,71.7,64.2,65.1,62.4,60.4,89,74,50,29.93,29.85,12,4,12,0.00
2013-8-16,87.4,74.0,64.7,65.8,62.1,54.4,90,69,41,29.94,29.87,13,4,13,0.00
2013-8-17,87.5,73.2,64.9,64.5,61.2,57.6,86,68,39,29.94,29.79,13,5,13,0.00
2013-8-18,79.3,69.2,62.9,64.6,61.6,60.0,91,78,59,29.91,29.81,13,5,13,0.00
2013-8-19,82.2,70.2,64.9,64.8,62.3,60.6,87,77,55,29.94,29.83,13,4,13,0.00
2013-8-20,84.3,70.6,64.0,63.6,61.1,59.7,88,74,46,29.93,29.82,13,5,13,0.00
2013-8-21,86.0,72.4,62.0,63.0,59.4,54.9,88,66,44,29.91,29.81,15,5,15,0.00
2013-8-22,89.3,75.4,63.6,61.6,57.3,50.6,84,57,30,29.91,29.78,15,5,15,0.00
2013-8-23,90.1,74.2,62.7,61.7,58.6,52.9,84,61,35,29.85,29.71,14,4,14,0.00
2013-8-24,84.5,71.1,61.3,64.0,60.3,56.3,90,71,46,29.87,29.73,14,4,14,0.00
2013-8-25,87.2,71.3,60.0,63.3,59.4,53.7,94,70,33,29.90,29.83,12,4,12,0.00
2013-8-26,92.0,78.4,66.8,66.9,59.4,45.9,81,55,30,29.90,29.78,15,5,15,0.00
2013-8-27,89.3,76.9,69.2,64.6,59.6,50.5,78,57,27,29.83,29.74,14,5,14,0.00
2013-8-28,94.4,78.9,68.0,64.3,59.3,47.2,80,54,26,29.87,29.75,16,5,16,0.00
2013-8-29,99.2,80.9,69.7,63.7,60.1,50.0,73,53,25,29.92,29.84,13,4,13,0.00
2013-8-30,92.8,83.6,75.8,71.6,65.6,59.5,65,55,44,29.96,29.88,15,5,15,0.00
2013-8-31,91.5,82.2,76.0,71.2,67.0,59.5,73,60,49,29.95,29.85,18,5,18,0.00
2013-9-1,88.5,80.0,73.6,71.1,67.8,64.0,79,67,55,29.92,29.83,16,6,16,0.00
2013-9-2,89.2,77.6,69.3,69.9,67.3,65.7,89,72,50,29.91,29.78,14,5,14,0.00
2013-9-3,95.9,81.3,72.3,69.6,66.5,63.1,82,63,37,29.89,29.79,16,4,16,0.00
2013-9-4,96.0,82.3,72.5,66.9,63.2,59.1,77,55,31,29.89,29.81,16,4,16,0.00
2013-9-5,96.6,82.4,71.0,66.5,62.0,57.1,77,52,31,29.87,29.79,14,4,14,0.00
2013-9-6,99.9,82.5,70.3,65.9,60.7,49.0,81,51,21,29.85,29.77,14,4,14,0.00
2013-9-7,98.3,80.8,70.5,65.3,61.0,53.6,77,53,28,29.85,29.77,16,4,16,0.00
2013-9-8,87.7,74.2,66.1,64.5,61.2,55.0,84,66,39,29.84,29.74,14,4,14,0.00
2013-9-9,82.3,70.6,64.0,64.0,60.5,58.6,87,72,50,29.80,29.72,13,5,13,0.00
2013-9-10,79.7,68.8,62.2,60.9,59.3,58.3,88,73,51,29.93,29.80,14,4,14,0.00
2013-9-11,78.7,68.2,60.8,62.1,59.8,56.8,87,76,55,30.00,29.90,14,4,14,0.00
2013-9-12,86.8,71.9,60.9,62.9,60.0,56.9,90,69,39,29.93,29.80,14,4,14,0.00
2013-9-13,88.3,73.2,60.6,64.6,60.2,56.1,86,66,39,29.82,29.64,12,3,12,0.00
2013-9-14,87.4,74.7,64.4,66.7,62.0,57.3,89,67,39,29.71,29.60,12,4,12,0.00
2013-9-15,92.6,74.3,65.0,65.7,62.1,58.9,91,69,37,29.75,29.68,16,4,16,0.00
2013-9-16,90.0,74.9,63.6,63.9,60.2,55.8,89,63,36,29.81,29.71,14,4,14,0.00
2013-9-17,77.3,67.9,62.6,63.3,61.2,58.9,94,80,60,29.82,29.71,12,4,12,0.00
2013-9-18,77.1,68.7,62.7,61.2,59.9,57.9,91,74,56,29.81,29.72,12,4,12,0.00
2013-9-19,79.5,68.1,61.0,63.4,61.0,57.5,91,79,57,29.82,29.74,13,4,13,0.00
2013-9-20,73.2,67.9,66.3,62.7,61.5,60.2,84,80,68,29.88,29.80,10,4,10,0.00
2013-9-21,76.7,68.8,64.3,60.8,58.9,56.8,83,72,54,29.91,29.79,16,5,16,0.00
2013-9-22,77.3,68.2,59.9,59.7,55.7,47.9,90,67,39,29.84,29.77,15,4,15,0.00
2013-9-23,93.3,74.0,59.1,59.2,49.7,37.1,77,49,16,29.88,29.78,14,4,14,0.00
2013-9-24,87.7,73.7,60.5,61.2,52.0,41.1,79,52,21,29.91,29.81,14,4,14,0.00
2013-9-25,74.6,67.6,61.2,61.4,58.0,50.6,85,72,59,29.84,29.69,15,5,15,0.00
2013-9-26,75.3,67.3,61.6,56.8,50.6,32.5,78,58,23,29.87,29.71,20,6,20,0.00
2013-9-27,84.1,68.3,54.3,52.1,43.1,27.0,79,46,14,29.97,29.87,17,4,17,0.00
2013-9-28,89.9,71.0,55.0,44.3,37.0,21.0,59,34,9,30.02,29.93,20,4,20,0.00
2013-9-29,88.0,70.3,54.7,50.0,41.8,32.0,60,39,14,30.06,29.94,14,3,14,0.00
2013-9-30,84.2,69.9,56.1,62.0,53.4,42.9,91,60,24,29.98,29.83,12,3,12,0.00
2013-10-1,79.8,68.0,58.4,61.8,58.3,53.1,88,73,44,29.93,29.84,12,4,12,0.00
2013-10-2,75.7,67.6,63.0,60.6,58.7,57.1,85,74,56,29.96,29.85,12,5,12,0.00
2013-10-3,74.5,67.1,61.8,60.1,59.1,56.8,87,76,59,29.92,29.80,13,4,13,0.00
2013-10-4,89.8,73.4,59.8,59.8,47.5,13.5,90,51,6,30.01,29.87,16,4,16,0.00
2013-10-5,91.2,76.5,60.9,36.8,25.4,12.3,37,18,6,30.09,29.99,25,6,25,0.00
2013-10-6,92.2,73.7,58.0,49.7,30.6,12.7,50,26,6,30.07,29.93,13,4,13,0.00
2013-10-7,85.5,69.3,59.0,59.8,45.8,28.1,85,46,14,29.96,29.87,13,3,13,0.00
2013-10-8,72.3,64.5,58.4,57.5,55.8,53.6,88,74,55,29.92,29.80,14,5,14,0.00
2013-10-9,65.3,60.7,53.2,54.9,50.7,45.1,83,70,54,29.82,29.70,21,7,21,0.05
2013-10-10,68.9,59.3,48.9,52.2,48.7,45.6,90,70,45,30.00,29.80,12,3,12,0.01
2013-10-11,75.5,61.9,50.7,56.3,51.6,46.9,88,71,39,30.04,29.93,14,3,14,0.00
2013-10-12,75.0,62.8,52.3,59.7,55.4,49.6,95,78,54,29.97,29.87,14,3,14,0.00
2013-10-13,70.2,63.6,57.7,57.3,55.1,52.8,90,75,59,30.01,29.92,12,3,12,0.00
2013-10-14,84.6,66.9,53.6,56.3,52.1,44.3,91,64,25,30.01,29.87,12,3,12,0.00
2013-10-15,88.3,70.6,55.1,51.3,39.7,25.6,72,39,11,29.95,29.83,16,3,16,0.00
2013-10-16,86.6,71.8,60.2,42.4,32.8,21.5,50,27,10,30.05,29.95,14,4,14,0.00
2013-10-17,82.8,67.4,53.8,52.9,40.5,31.5,68,40,16,30.02,29.90,14,3,14,0.00
2013-10-18,86.2,67.3,52.9,56.3,48.2,38.8,79,55,20,30.00,29.90,12,3,12,0.00
2013-10-19,85.2,67.2,52.7,60.9,50.3,42.6,81,58,24,30.00,29.93,12,3,12,0.00
2013-10-20,76.8,64.1,55.9,60.5,56.3,49.8,95,77,51,29.98,29.88,12,3,12,0.00
2013-10-21,77.2,64.4,58.0,58.3,56.6,54.1,93,78,47,29.98,29.88,10,3,10,0.00
2013-10-22,78.2,62.8,53.8,59.3,56.1,51.1,93,81,51,30.00,29.88,12,3,12,0.00
2013-10-23,69.5,62.8,57.1,57.6,56.0,53.9,91,79,65,29.96,29.89,12,3,12,0.00
2013-10-24,71.0,63.4,58.9,56.8,55.5,54.2,86,76,60,30.04,29.94,14,3,14,0.00
2013-10-25,75.1,63.3,56.0,58.6,56.4,52.8,91,79,55,30.12,29.99,12,3,12,0.00
2013-10-26,78.0,62.8,56.0,60.3,57.5,53.6,96,84,53,30.08,29.95,9,2,9,0.00
2013-10-27,71.2,62.4,56.8,60.7,57.9,54.3,97,86,68,29.97,29.80,10,4,10,0.00
2013-10-28,66.1,60.7,57.5,56.3,51.7,44.1,89,73,45,29.93,29.81,17,6,17,0.06
2013-10-29,66.2,58.3,50.1,51.8,49.8,45.9,91,75,50,30.00,29.92,13,4,13,0.00
2013-10-30,72.3,59.2,49.2,52.9,49.6,45.8,92,73,39,30.07,29.97,13,3,13,0.00
2013-10-31,81.3,63.3,50.6,49.6,44.6,29.1,87,57,16,30.08,29.96,14,3,14,0.00
2013-11-1,87.3,67.3,50.5,46.3,39.6,29.5,75,43,13,30.09,29.90,12,3,12,0.00
2013-11-2,81.3,65.5,53.8,59.7,46.3,33.8,91,54,19,29.97,29.86,15,4,15,0.00
2013-11-3,68.8,62.8,60.4,58.1,55.0,53.1,91,76,61,29.92,29.81,12,4,12,0.00
2013-11-4,66.9,61.5,54.7,54.6,52.9,50.3,85,74,61,29.94,29.79,14,3,14,0.00
2013-11-5,77.6,61.9,49.7,53.0,42.9,28.6,93,57,17,30.13,29.94,12,3,12,0.00
2013-11-6,83.3,65.1,50.9,40.2,29.9,11.7,62,32,7,30.19,30.08,9,3,9,0.00
2013-11-7,86.8,69.2,56.5,40.7,29.4,11.2,47,26,6,30.10,29.97,12,3,12,0.00
2013-11-8,76.9,64.2,51.4,58.5,44.8,32.8,93,53,26,30.03,29.91,9,3,9,0.00
2013-11-9,77.2,62.3,54.1,57.5,49.9,27.9,93,71,19,30.06,29.98,10,2,10,0.00
2013-11-10,83.2,62.0,51.4,55.9,47.3,32.0,84,64,16,30.12,30.01,17,3,17,0.00
2013-11-11,80.8,62.1,48.2,54.1,46.4,41.4,85,60,26,30.12,30.00,13,2,13,0.00
2013-11-12,77.6,63.2,52.3,53.0,48.3,43.4,87,61,31,30.15,30.03,8,2,8,0.00
2013-11-13,93.8,70.8,52.9,46.9,41.8,31.1,73,41,11,30.04,29.85,12,2,12,0.00
2013-11-14,90.8,71.2,57.8,59.1,42.3,28.1,91,41,11,29.91,29.75,12,3,12,0.00
2013-11-15,68.0,62.9,58.7,58.8,56.0,54.3,91,79,65,29.76,29.66,15,5,15,0.00
2013-11-16,66.2,60.6,55.7,55.2,51.6,48.6,89,73,54,29.93,29.74,13,4,13,0.00
2013-11-17,69.4,60.5,53.8,54.4,51.7,48.5,87,74,51,30.08,29.93,12,2,12,0.00
2013-11-18,69.1,59.9,51.0,55.5,53.1,48.2,92,79,59,30.15,30.03,12,4,12,0.00
2013-11-19,65.7,60.7,56.9,54.3,53.0,51.3,85,76,63,30.08,29.94,10,3,10,0.00
2013-11-20,64.8,60.1,55.3,56.8,54.2,51.6,93,82,67,29.97,29.88,8,2,8,0.04
2013-11-21,64.1,59.7,55.9,59.7,56.0,52.7,96,88,75,29.89,29.82,13,4,13,0.06
2013-11-22,62.6,56.9,53.1,53.2,46.6,40.6,92,70,47,29.95,29.82,12,2,12,0.01
2013-11-23,67.8,57.9,49.6,47.8,43.1,39.4,78,59,37,30.08,29.94,14,2,14,0.00
2013-11-24,68.5,57.1,47.6,46.4,43.2,41.2,80,62,39,30.18,30.07,12,3,12,0.00
2013-11-25,72.6,57.8,45.8,50.3,43.6,40.8,84,62,33,30.24,30.14,10,2,10,0.00
2013-11-26,79.0,61.3,46.5,51.5,44.1,34.2,83,58,21,30.18,30.02,10,2,10,0.00
2013-11-27,75.0,62.3,53.3,43.5,40.9,36.2,65,47,26,30.03,29.87,10,2,10,0.00
2013-11-28,69.5,59.4,49.2,54.2,46.9,39.8,83,64,39,30.05,29.88,13,2,13,0.00
2013-11-29,64.3,58.6,54.8,54.8,52.0,48.6,93,79,62,30.18,30.05,10,1,10,0.24
2013-11-30,75.8,60.7,51.5,52.6,49.4,45.8,92,69,36,30.18,30.06,10,1,10,0.00
2013-12-1,81.2,63.5,50.5,48.7,43.4,34.1,85,54,19,30.21,30.07,8,1,8,0.00
2013-12-2,74.9,59.3,48.3,47.7,42.1,34.0,77,56,24,30.10,29.91,9,0,9,0.00
2013-12-3,64.7,57.0,48.8,54.4,49.3,42.6,87,76,65,29.91,29.74,16,4,16,0.00
2013-12-4,62.7,53.5,46.7,46.6,39.3,28.7,83,60,41,29.97,29.77,15,3,15,0.00
2013-12-5,61.2,51.4,43.9,41.2,37.2,29.9,79,60,32,30.11,29.95,12,2,12,0.00
2013-12-6,59.3,50.6,41.5,43.7,40.1,36.6,84,68,52,30.19,30.09,12,3,12,0.00
2013-12-7,57.1,48.6,42.1,49.9,42.1,38.3,92,79,59,30.12,30.00,16,1,16,0.18
2013-12-8,56.9,46.3,37.0,41.5,37.6,33.2,93,74,45,30.21,30.10,8,1,8,0.01
2013-12-9,63.2,49.0,36.5,37.4,25.4,2.3,88,48,13,30.30,30.20,12,1,12,0.00
2013-12-10,66.4,51.6,38.2,35.9,20.5,7.5,56,34,11,30.28,30.08,13,3,13,0.00
2013-12-11,75.0,54.9,40.6,39.8,28.8,17.7,62,40,12,30.17,30.09,9,2,9,0.00
2013-12-12,67.2,55.7,47.4,50.4,43.7,30.2,91,67,36,30.21,30.12,10,2,10,0.00
2013-12-13,66.5,53.8,44.7,50.8,45.2,37.6,93,76,36,30.24,30.11,8,1,8,0.00
2013-12-14,75.7,57.0,42.4,44.8,36.5,23.9,90,54,16,30.29,30.17,9,2,9,0.00
2013-12-15,80.5,61.7,45.2,35.7,30.4,17.8,60,35,10,30.23,30.06,10,3,10,0.00
2013-12-16,86.4,66.6,53.4,43.8,37.2,27.4,55,36,12,30.11,30.03,12,3,12,0.00
2013-12-17,76.9,64.8,51.8,51.0,45.0,39.9,68,50,28,30.11,29.99,7,2,7,0.00
2013-12-18,69.4,60.7,55.2,55.7,51.8,46.1,85,73,45,29.99,29.85,12,3,12,0.00
2013-12-19,56.7,53.2,46.8,51.9,47.6,44.3,91,81,69,29.86,29.71,10,3,10,0.24
2013-12-20,63.2,51.4,41.4,50.5,45.9,39.5,95,82,59,29.95,29.77,8,2,8,0.01
2013-12-21,61.2,51.9,44.0,51.0,46.8,42.1,94,83,63,30.09,29.92,9,2,9,0.00
2013-12-22,70.1,54.1,43.3,51.9,46.8,41.4,95,79,43,30.25,30.08,10,2,10,0.01
2013-12-23,76.1,58.7,45.6,48.5,42.3,35.8,91,60,24,30.31,30.17,12,2,12,0.00
2013-12-24,79.3,61.9,47.1,47.7,40.0,33.1,75,49,20,30.19,30.07,7,2,7,0.00
2013-12-25,82.3,63.2,49.5,40.5,32.1,17.8,64,36,9,30.20,30.08,8,3,8,0.00
2013-12-26,82.5,62.4,48.2,33.1,23.5,7.3,45,27,6,30.17,30.04,13,3,13,0.00
2013-12-27,83.6,61.6,46.4,31.8,25.2,6.5,49,30,6,30.15,30.02,8,2,8,0.00
2013-12-28,70.7,58.8,50.0,53.8,40.5,26.2,93,55,20,30.03,29.92,9,2,9,0.00
2013-12-29,76.8,58.2,42.9,51.1,34.9,13.6,96,54,10,30.14,30.00,8,2,8,0.01
2013-12-30,76.0,57.2,42.7,36.7,28.4,16.6,58,38,11,30.26,30.13,7,2,7,0.00
2013-12-31,72.1,54.9,42.1,50.8,37.0,26.1,84,55,19,30.21,30.07,7,2,7,0.00
2014-1-1,73.9,55.4,42.0,52.1,43.6,37.3,90,68,28,30.15,30.03,6,2,6,0.00
2014-1-2,82.2,59.6,46.0,51.7,44.0,30.3,88,63,16,30.11,29.97,9,2,9,0.00